Location: B�di�
(14.6834°N, 3.1047°W)
Time: 18:43:02
(UTC+00:00)

H-2A R/B - Pass Details

Date: 24 January 2020
Orbit: 259 x 32813 km, 28.4° (Epoch: 27 February)

Event Time Altitude Azimuth Distance (km) Brightness Sun altitude
Rises 12:40:31 0° 244° (WSW) 14,931 8.8 55.8°
Reaches altitude 10° 13:00:02 10° 235° (SW) 18,287 9.5 54.9°
Drops below altitude 10° 18:56:58 10° 238° (WSW) 31,252 11.5 -12.3°
Enters shadow 21:16:46 65° 311° (NW) 2,222 4.1 -45.0°
